TimeCST,TemperatureF,Dew PointF,Humidity,Sea Level PressureIn,VisibilityMPH,Wind Direction,Wind SpeedMPH,Gust SpeedMPH,PrecipitationIn,Events,Conditions,WindDirDegrees,DateUTC
12:53 AM,46.0,32.0,58,30.31,10.0,NNW,6.9,-,N/A,,Partly Cloudy,330,2013-02-03 06:53:00
1:53 AM,41.0,30.0,65,30.31,10.0,SW,4.6,-,N/A,,Scattered Clouds,230,2013-02-03 07:53:00
2:53 AM,41.0,30.9,67,30.30,10.0,WSW,5.8,-,N/A,,Scattered Clouds,240,2013-02-03 08:53:00
3:53 AM,41.0,30.9,67,30.29,10.0,NW,3.5,-,N/A,,Scattered Clouds,310,2013-02-03 09:53:00
4:53 AM,42.1,30.9,65,30.28,10.0,NNW,4.6,-,N/A,,Scattered Clouds,330,2013-02-03 10:53:00
5:53 AM,37.9,30.0,73,30.28,10.0,Calm,Calm,-,N/A,,Scattered Clouds,0,2013-02-03 11:53:00
6:53 AM,37.9,30.0,73,30.29,10.0,Calm,Calm,-,N/A,,Scattered Clouds,0,2013-02-03 12:53:00
7:53 AM,39.0,32.0,76,30.30,10.0,SSW,4.6,-,N/A,,Mostly Cloudy,210,2013-02-03 13:53:00
8:53 AM,45.0,37.0,74,30.30,10.0,SSW,4.6,-,N/A,,Mostly Cloudy,210,2013-02-03 14:53:00
9:53 AM,54.0,36.0,51,30.31,10.0,Calm,Calm,-,N/A,,Overcast,0,2013-02-03 15:53:00
10:53 AM,61.0,36.0,39,30.29,10.0,SSW,4.6,-,N/A,,Overcast,200,2013-02-03 16:53:00
11:53 AM,63.0,32.0,31,30.27,10.0,SSW,6.9,-,N/A,,Overcast,210,2013-02-03 17:53:00
12:53 PM,66.9,24.1,20,30.23,10.0,SSE,11.5,-,N/A,,Overcast,150,2013-02-03 18:53:00
1:53 PM,69.1,26.1,20,30.19,10.0,SSW,9.2,-,N/A,,Overcast,200,2013-02-03 19:53:00
2:53 PM,70.0,24.1,18,30.14,10.0,SSE,8.1,17.3,N/A,,Mostly Cloudy,160,2013-02-03 20:53:00
3:53 PM,68.0,23.0,18,30.12,10.0,SSE,15.0,-,N/A,,Mostly Cloudy,150,2013-02-03 21:53:00
4:53 PM,66.0,24.1,20,30.08,10.0,SSE,11.5,-,N/A,,Overcast,160,2013-02-03 22:53:00
5:53 PM,62.1,26.1,25,30.07,10.0,SSE,9.2,-,N/A,,Overcast,150,2013-02-03 23:53:00
6:53 PM,61.0,27.0,27,30.07,10.0,SSE,10.4,-,N/A,,Overcast,150,2013-02-04 00:53:00
7:53 PM,57.9,28.9,33,30.05,10.0,SSE,9.2,-,N/A,,Overcast,150,2013-02-04 01:53:00
8:53 PM,60.1,28.9,31,30.04,10.0,SSE,10.4,-,N/A,,Overcast,160,2013-02-04 02:53:00
9:53 PM,60.1,28.0,30,30.01,10.0,SSE,11.5,-,N/A,,Overcast,160,2013-02-04 03:53:00
10:53 PM,60.1,27.0,28,29.99,10.0,SSE,11.5,-,N/A,,Overcast,160,2013-02-04 04:53:00
11:53 PM,59.0,27.0,29,29.97,10.0,SSE,10.4,-,N/A,,Overcast,160,2013-02-04 05:53:00